CAPE
12 12 13 17 29 33 34 27 16 25 34 11 14 11 19 24 6 0 0 0 0 17 58 0 0 0 0 0 16 42 61 20 5 0 0 13 30 0 0 0 5 669 549 798 1904
16 11 14 20 23 33 31 31 37 37 15 10 15 14 18 12 0 0 0 0 36 84 0 0 0 0 0 0 3 29 15 4 0 0 0 1 63 0 2 1 131 934 1169 1817 1753
15 13 13 13 19 19 28 30 38 41 13 6 15 14 11 2 0 0 8 8 45 15 0 0 0 0 0 0 0 7 9 0 0 0 6 3 88 67 11 19 5 790 1424 1858 1621
19 14 13 10 23 17 27 28 37 29 13 6 23 0 9 0 0 0 0 0 0 0 0 0 0 1 6 4 0 20 0 0 0 0 0 43 100 80 38 1 0 0 1392 1678 1151
12 13 13 16 14 19 13 28 31 18 11 0 25 1 0 0 0 0 0 0 0 0 0 0 11 20 11 0 0 28 0 0 0 0 0 56 50 53 2 0 0 0 562 1105 911
9 14 12 13 12 17 17 25 36 19 9 3 15 3 0 0 0 0 0 0 0 0 0 3 23 32 20 22 22 11 9 0 0 0 13 57 2 8 0 0 0 400 960 1000 1190
13 6 15 16 14 11 21 18 28 13 8 11 14 0 0 0 0 0 0 0 0 0 0 0 16 36 33 18 13 10 1 0 4 0 0 71 9 1 0 0 0 54 268 779 1210
15 5 15 18 11 10 15 20 16 2 0 1 17 0 0 0 0 0 0 0 0 0 0 29 8 17 36 18 3 33 9 11 1 0 0 11 1 0 0 0 3 0 0 8 219
18 15 3 21 11 13 13 14 4 1 0 4 0 0 0 0 0 0 0 0 0 0 0 41 1 13 45 8 1 22 39 8 33 0 7 35 1 0 0 9 3 0 0 0 0
18 15 1 16 7 10 11 0 0 0 0 0 0 0 0 0 0 0 0 0 0 0 0 0 0 0 1 27 0 2 10 0 20 0 2 12 0 4 0 31 16 1 0 0 0
17 17 3 9 10 8 0 0 0 0 0 0 0 0 0 0 0 0 0 0 0 0 1 0 0 0 0 0 42 18 6 8 7 59 11 35 0 0 12 19 14 23 0 0 0
23 4 9 3 14 4 0 0 0 0 0 0 0 0 0 0 0 0 0 0 0 0 0 0 0 0 0 0 23 13 8 3 2 3 49 16 3 9 6 13 13 14 0 0 0
17 2 7 2 15 0 0 0 0 0 0 0 0 0 0 0 0 0 0 0 0 0 0 0 0 0 0 0 17 5 9 1 20 108 60 18 38 32 20 33 4 0 0 0 0
11 9 9 12 0 0 0 0 0 0 0 0 0 0 0 0 0 0 0 0 0 0 0 0 0 0 7 3 13 1 0 28 85 20 36 4 6 27 17 18 6 12 0 0 0
5 1 17 9 0 0 0 0 0 0 0 0 0 0 0 0 0 0 0 0 0 0 0 0 0 2 9 19 6 12 6 2 4 0 42 0 0 4 5 0 2 0 0 0 0
3 0 34 0 0 0 0 0 0 0 0 0 0 0 0 0 0 0 0 0 0 0 0 0 0 0 3 8 4 5 22 5 0 0 0 1 0 0 4 0 0 0 0 0 0
2 0 23 0 0 0 0 0 0 0 0 0 0 0 0 0 0 0 0 0 0 0 0 1 1 7 8 8 2 2 0 1 6 0 0 0 0 0 0 0 0 0 0 0 0
0 2 18 0 0 0 0 0 0 0 0 0 0 1 0 0 0 0 0 0 0 3 0 0 1 16 4 1 1 0 0 0 0 0 0 0 0 0 0 0 0 0 0 0 0
7 0 0 0 0 0 0 0 0 0 0 0 0 0 1 1 0 0 0 0 0 0 12 1 0 3 0 0 3 5 0 1 0 0 0 0 0 0 0 0 0 0 0 0 0
2 1 1 0 0 0 0 0 0 0 0 0 0 0 0 4 0 0 0 0 0 0 0 0 0 0 1 0 4 3 1 0 0 0 0 0 0 0 0 0 0 0 0 0 0
0 0 4 0 0 0 0 0 0 0 0 0 0 0 0 5 0 0 0 0 0 0 0 0 0 0 0 0 0 0 0 0 0 0 0 0 0 0 0 0 0 0 0 0 0
0 2 2 0 0 0 0 0 0 0 0 0 0 0 0 3 0 0 0 0 0 0 0 0 0 0 0 0 0 0 0 0 0 0 0 0 0 0 0 0 0 0 0 0 0
0 6 0 0 0 0 0 0 0 0 0 0 0 0 0 1 0 0 0 0 0 0 1 1 0 0 0 0 0 0 0 0 0 0 1 0 0 0 0 0 0 0 0 0 0
0 0 1 0 0 0 0 0 0 0 0 0 0 0 0 2 0 0 0 0 0 0 16 2 3 0 0 0 0 0 0 0 0 0 0 0 0 0 0 0 0 0 0 0 0
0 0 0 0 0 0 0 0 0 0 0 0 0 0 0 0 0 0 0 0 0 0 0 0 0 0 0 0 0 0 0 0 0 0 0 0 0 0 0 0 0 0 0 0 0
0 0 0 0 0 0 0 0 0 0 0 0 0 0 0 0 0 0 0 0 0 0 0 0 0 0 0 0 0 0 0 0 0 0 0 0 0 0 0 0 0 0 0 0 0
0 0 0 0 0 0 0 0 0 0 0 0 0 0 0 0 0 0 0 0 0 0 0 0 0 0 0 0 0 0 0 0 0 0 0 0 0 0 0 0 0 0 0 0 0
CIN
-0 -0 -0 -0 -0 -0 -0 -2 -1 -1 -0 -1 -0 -0 -2 -1 -0 -0 -0 -0 -0 -0 -1 -0 -0 -0 -0 -0 -17 -8 -1 -1 -1 -0 -0 -11 -8 -0 -0 -0 -135 -163 -158 -144 -1
-0 -0 -0 -0 -0 -0 -0 -0 -0 -0 -2 -1 -0 -0 -1 -0 -0 -0 -0 -0 -0 -2 -0 -0 -0 -0 -0 -0 -7 -3 -1 -0 -0 -0 -0 -3 -8 -14 -85 -28 -90 -66 -94 -39 -17
-0 -0 -0 -0 -0 -0 -0 -0 -1 -0 -5 -0 -0 -0 -0 -3 -0 -0 -11 -0 -0 -9 -2 -0 -0 -0 -0 -0 -0 -10 -1 -0 -0 -0 -9 -20 -3 -11 -20 -32 -45 -39 -54 -9 -24
-0 -0 -0 -0 -0 -1 -0 -0 -0 -3 -5 -0 -0 -0 -0 -0 -0 -0 -0 -0 -0 -0 -0 -0 -0 -0 -0 -0 -0 -1 -0 -0 -0 -0 -4 -11 -11 -17 -14 -0 -0 -0 -106 -6 -30
-0 -0 -0 -1 -1 -1 -1 -0 -1 -4 -3 -0 -0 -0 -0 -0 -0 -0 -1 -0 -0 -0 -0 -0 -9 -5 -0 -0 -0 -0 -0 -0 -0 -0 -0 -10 -0 -28 -42 -0 -0 -5 -157 -63 -32
-0 -0 -1 -0 -1 -1 -2 -3 -0 -6 -4 -0 -0 -0 -0 -0 -0 -0 -0 -0 -0 -0 -0 -6 -7 -9 -4 -2 -1 -1 -2 -12 -0 -0 -29 -0 -9 -19 -0 -1 -0 -44 -74 -61 -52
-0 -0 -1 -2 -2 -1 -2 -1 -0 -7 -0 -0 -0 -0 -0 -0 -0 -0 -0 -0 -0 -0 -0 -0 -16 -8 -9 -0 -0 -1 -0 -0 -4 -0 -2 -1 -4 -0 -0 -0 -0 -131 -179 -109 -64
-0 -0 -0 -0 -2 -2 -2 -1 -6 -1 -0 -0 -0 -0 -0 -0 -0 -0 -0 -0 -0 -0 -0 -25 -34 -14 -6 -4 -0 -0 -0 -2 -93 -0 -0 -4 -1 -0 -0 -0 -0 -0 -0 -236 -203
-0 -0 -1 -1 -3 -3 -3 -3 -1 -0 -0 -0 -0 -0 -0 -0 -0 -0 -0 -0 -0 -0 -0 -16 -11 -15 -4 -2 -0 -3 -6 -58 -9 -0 -1 -0 -1 -0 -0 -3 -0 -0 -0 -0 -0
-0 -0 -1 -3 -3 -3 -6 -0 -0 -0 -0 -0 -0 -0 -0 -0 -0 -0 -0 -0 -0 -0 -0 -0 -0 -1 -6 -0 -0 -1 -0 -1 -22 -0 -5 -0 -1 -0 -0 -0 -0 -1 -0 -0 -0
-0 -0 -2 -3 -2 -1 -0 -0 -0 -0 -0 -0 -0 -0 -0 -0 -0 -0 -0 -0 -0 -0 -1 -0 -0 -0 -0 -0 -2 -0 -0 -0 -21 -41 -4 -0 -0 -0 -2 -0 -0 -0 -0 -0 -0
-0 -1 -1 -2 -1 -1 -0 -0 -0 -0 -0 -0 -0 -0 -0 -0 -0 -0 -0 -0 -0 -0 -0 -0 -0 -0 -0 -1 -0 -0 -0 -2 -61 -31 -1 -0 -0 -0 -0 -0 -0 -0 -0 -0 -0
-0 -1 -2 -3 -1 -0 -0 -0 -0 -0 -0 -0 -0 -0 -0 -0 -0 -0 -0 -0 -0 -0 -0 -0 -0 -0 -0 -0 -0 -0 -0 -3 -25 -2 -3 -2 -0 -0 -0 -0 -0 -0 -0 -0 -0
-0 -1 -1 -1 -0 -0 -0 -0 -0 -0 -0 -0 -0 -0 -0 -0 -0 -0 -0 -0 -0 -0 -0 -0 -0 -0 -21 -0 -0 -0 -0 -6 -4 -38 -9 -0 -0 -0 -0 -0 -0 -1 -0 -0 -0
-0 -1 -0 -1 -0 -0 -0 -0 -0 -0 -0 -0 -0 -0 -0 -0 -0 -0 -0 -0 -0 -0 -0 -0 -0 -0 -0 -1 -0 -0 -2 -0 -0 -0 -1 -0 -0 -0 -0 -0 -5 -0 -0 -0 -0
-13 -0 -0 -0 -0 -0 -0 -0 -0 -0 -0 -0 -0 -0 -0 -1 -0 -0 -0 -0 -0 -0 -0 -0 -0 -0 -0 -0 -0 -0 -3 -15 -0 -0 -0 -0 -0 -0 -8 -0 -0 -0 -0 -0 -0
-11 -0 -2 -0 -0 -0 -0 -0 -0 -0 -0 -0 -0 -0 -1 -0 -0 -0 -0 -0 -0 -0 -0 -0 -0 -0 -0 -0 -0 -0 -0 -18 -14 -1 -0 -0 -0 -0 -0 -0 -0 -0 -0 -0 -0
-7 -8 -1 -0 -0 -0 -0 -0 -0 -0 -0 -0 -0 -0 -0 -0 -0 -0 -0 -0 -0 -0 -0 -0 -0 -0 -1 -0 -0 -1 -0 -0 -0 -0 -1 -0 -0 -0 -0 -0 -0 -0 -0 -0 -0
-9 -0 -0 -0 -0 -0 -0 -0 -0 -0 -0 -0 -0 -0 -3 -0 -0 -0 -0 -0 -0 -0 -0 -0 -1 -0 -0 -0 -0 -0 -0 -0 -0 -0 -0 -0 -0 -0 -0 -0 -0 -0 -0 -0 -0
-1 -12 -0 -0 -0 -0 -0 -0 -0 -0 -0 -0 -0 -0 -0 -5 -2 -0 -0 -0 -0 -0 -0 -0 -0 -0 -9 -0 -0 -0 -0 -0 -0 -0 -0 -0 -0 -0 -0 -0 -0 -0 -0 -0 -0
-0 -0 -1 -0 -0 -0 -0 -0 -0 -0 -0 -0 -0 -0 -0 -3 -0 -0 -0 -0 -0 -0 -0 -0 -0 -0 -0 -0 -0 -0 -0 -0 -0 -0 -0 -0 -0 -0 -0 -0 -0 -0 -0 -0 -0
-0 -0 -0 -0 -0 -0 -0 -0 -0 -0 -0 -0 -0 -0 -0 -15 -0 -0 -0 -0 -0 -0 -0 -0 -0 -0 -0 -0 -0 -0 -0 -0 -0 -0 -0 -0 -0 -0 -0 -0 -0 -0 -0 -0 -0
-0 -0 -0 -0 -0 -0 -0 -0 -0 -0 -0 -0 -0 -0 -0 -2 -0 -0 -0 -0 -0 -0 -2 -0 -0 -0 -0 -0 -0 -0 -0 -0 -0 -0 -0 -0 -0 -0 -0 -0 -0 -0 -0 -0 -0
-0 -0 -0 -0 -0 -0 -0 -0 -0 -0 -0 -0 -0 -0 -0 -8 -0 -0 -0 -13 -0 -0 -3 -6 -1 -0 -0 -0 -0 -0 -0 -0 -0 -0 -0 -0 -0 -0 -0 -0 -0 -0 -0 -0 -0
-0 -0 -0 -0 -0 -0 -0 -0 -0 -0 -0 -0 -0 -0 -0 -0 -0 -0 -0 -2 -0 -0 -0 -0 -0 -0 -0 -0 -0 -0 -0 -0 -0 -0 -0 -0 -0 -0 -0 -0 -0 -0 -0 -0 -0
-0 -0 -0 -0 -0 -0 -0 -0 -0 -0 -0 -0 -0 -0 -0 -0 -0 -0 -0 -0 -0 -0 -0 -0 -0 -0 -0 -0 -0 -0 -0 -0 -0 -0 -0 -0 -0 -0 -0 -0 -0 -0 -0 -0 -0
-0 -0 -0 -0 -0 -0 -0 -0 -0 -0 -0 -0 -0 -0 -0 -0 -0 -0 -0 -0 -0 -0 -0 -0 -0 -0 -0 -0 -0 -0 -0 -0 -0 -0 -0 -6 -0 -0 -0 -0 -0 -0 -0 -0 -0
Wind_Speed
11 13 11 11 13 13 11 10 12 9 10 11 13 12 12 10 8 3 5 9 5 12 8 1 2 2 1 3 3 0 6 12 16 14 16 10 4 14 12 12 5 4 3 6 19
12 13 10 11 12 11 12 12 12 10 9 10 11 11 9 8 2 5 10 10 10 9 3 0 2 2 2 2 4 7 8 18 10 12 13 12 13 11 9 13 9 3 3 16 23
13 12 10 11 11 11 12 12 13 9 9 8 9 8 6 3 2 5 6 2 7 3 4 3 3 2 2 3 5 6 16 17 16 12 3 11 12 8 10 10 14 6 12 17 19
12 11 11 10 11 10 11 11 12 6 6 7 7 6 6 1 2 3 4 7 6 3 4 2 3 2 4 6 6 7 9 15 17 4 5 11 6 8 10 16 19 7 15 18 22
11 12 11 9 10 10 10 11 10 4 4 5 8 5 3 1 7 5 2 6 3 1 1 3 4 4 7 5 5 11 7 8 12 17 16 8 11 3 13 26 19 9 13 21 21
13 12 10 9 8 9 10 10 8 4 4 4 6 4 2 2 3 3 3 3 2 2 2 1 3 4 6 7 9 5 9 9 12 15 12 16 5 0 4 20 20 14 16 19 23
14 10 10 9 7 7 9 8 4 5 4 5 4 2 0 9 3 4 3 2 2 1 2 2 2 2 1 5 9 5 9 10 12 16 8 11 13 11 8 16 19 8 5 8 20
15 10 11 10 6 6 8 7 4 5 4 3 3 3 5 4 2 5 2 4 4 3 2 2 1 2 2 2 2 5 6 6 10 18 12 9 11 8 3 10 14 2 5 5 4
13 12 7 9 5 6 6 5 5 4 3 1 3 3 7 6 1 4 4 3 3 1 2 1 1 2 1 3 3 5 7 10 6 20 12 17 6 4 2 17 5 4 2 6 7
13 9 6 7 6 4 4 3 1 3 3 3 1 2 4 2 3 2 2 2 1 2 3 5 4 1 2 3 4 3 4 6 8 13 17 15 10 6 4 13 16 4 3 4 7
13 9 6 6 7 1 4 4 2 2 1 4 3 2 3 6 3 3 2 1 1 4 3 3 4 4 9 8 12 5 7 12 6 5 13 13 8 9 8 11 16 11 6 3 3
11 7 7 6 5 6 4 3 1 3 1 4 4 4 4 3 4 3 2 1 1 2 1 4 5 7 7 5 12 9 10 5 2 5 12 11 6 7 5 6 9 9 11 5 1
10 7 8 5 5 2 4 4 3 3 4 3 3 1 3 2 2 3 3 1 3 1 2 5 6 7 11 5 10 9 5 1 3 6 3 10 5 8 6 7 4 6 12 5 3
8 9 9 7 3 3 3 5 3 3 6 3 1 1 2 2 2 4 2 2 1 1 3 5 5 7 7 6 4 5 7 2 8 2 2 3 3 4 8 7 6 10 10 5 5
11 9 9 7 4 3 5 6 4 5 3 3 1 0 2 2 3 2 3 2 3 2 3 8 5 7 9 4 2 4 6 5 5 4 2 2 3 3 2 3 2 9 6 7 6
14 9 9 1 0 3 6 6 5 9 6 0 3 2 1 2 1 5 2 1 0 2 4 7 2 4 4 3 3 6 3 3 4 1 3 4 1 3 4 4 6 4 6 6 7
13 10 6 3 4 5 5 4 7 6 3 2 2 2 3 4 4 5 5 6 2 4 3 2 3 3 6 2 2 1 2 3 5 5 2 5 4 0 11 9 6 5 5 11 10
15 11 1 2 6 6 4 7 4 4 5 2 4 4 3 4 2 4 5 4 2 2 2 2 3 6 2 1 3 3 2 4 4 2 2 2 3 2 2 6 8 8 9 12 12
17 3 2 2 4 4 6 4 7 6 4 5 3 6 2 1 1 5 1 3 3 4 4 5 4 3 4 2 3 2 3 1 5 2 4 3 4 3 8 8 2 8 10 9 11
7 4 1 3 4 5 5 5 2 4 3 3 4 1 2 1 0 3 3 4 5 3 2 2 2 3 3 2 5 5 1 3 4 4 4 4 4 5 12 11 8 5 7 7 4
5 4 3 3 4 4 4 6 4 2 3 3 3 3 2 2 2 2 4 4 5 6 2 1 3 6 2 5 4 4 3 2 3 2 4 5 0 3 7 6 5 8 6 2 3
4 3 3 2 2 0 3 5 4 3 2 2 4 3 3 3 3 2 2 4 5 3 3 2 4 2 2 1 2 1 2 2 4 2 4 3 5 7 7 7 7 7 5 4 2
5 3 1 1 3 2 2 2 2 3 2 3 2 1 2 2 2 2 3 4 6 4 4 4 3 4 8 5 3 5 4 3 3 2 3 5 2 5 7 7 7 7 6 6 7
5 6 2 2 0 5 5 4 3 2 2 4 4 2 2 1 4 2 2 1 4 5 6 4 3 4 4 4 2 4 4 4 4 4 3 2 2 5 7 7 7 6 5 6 6
2 3 5 7 5 4 4 5 5 4 1 2 2 3 5 3 2 2 1 2 4 7 4 3 4 4 2 4 2 3 3 4 5 2 4 4 4 2 3 4 5 6 7 8 8
6 6 2 2 5 8 4 5 5 3 5 2 3 4 3 4 5 6 3 3 2 5 5 4 2 3 4 6 3 5 6 2 4 3 5 3 4 2 4 5 9 8 8 8 8
1 2 5 1 3 5 6 7 7 8 3 2 6 4 3 3 4 3 3 2 0 2 4 2 2 2 2 4 0 6 5 3 2 3 4 3 1 3 5 6 6 7 7 7 7
Wind_Direction
317 306 309 310 306 313 318 320 313 315 332 324 329 324 326 326 334 359 247 226 217 250 270 301 52 6 135 239 218 115 239 239 238 236 239 193 265 265 258 264 279 182 190 170 151
304 304 304 307 313 320 323 316 309 310 321 335 336 331 325 338 342 259 248 255 258 282 197 24 319 30 305 253 225 192 223 236 245 239 275 258 203 283 323 286 249 209 91 135 150
293 302 304 307 311 312 309 319 312 316 326 336 336 333 343 25 335 253 260 290 264 355 147 158 138 142 232 216 222 219 234 231 253 268 325 260 235 202 316 279 277 228 156 158 166
289 297 296 302 312 312 320 312 318 315 353 339 339 335 350 50 294 265 286 343 344 68 135 169 118 209 248 245 224 247 236 236 247 280 326 308 228 228 245 273 272 262 174 166 172
275 284 295 298 304 307 312 313 318 322 359 330 338 358 48 345 253 268 326 354 14 60 165 223 197 205 247 218 238 249 256 274 252 253 266 290 241 232 239 275 299 252 226 168 186
269 278 287 289 293 303 306 310 311 311 336 297 331 32 83 269 255 271 333 334 3 21 312 201 248 259 267 246 216 240 241 271 259 246 241 265 279 298 233 283 268 233 210 187 186
261 265 282 279 285 300 304 310 323 335 309 290 320 78 51 242 312 331 316 237 219 214 292 258 264 242 292 278 336 296 283 272 242 223 199 256 237 233 223 329 286 228 180 201 179
255 257 271 273 282 295 296 321 310 302 276 267 41 81 248 250 270 300 221 282 252 225 219 234 250 241 218 28 293 288 248 247 225 204 185 213 253 202 207 297 275 303 166 146 117
246 248 257 276 290 287 306 319 303 288 201 156 66 102 272 315 277 266 198 245 271 255 32 123 26 231 27 275 301 202 287 211 235 192 160 210 261 217 81 276 225 339 45 125 107
243 238 249 250 278 294 6 344 208 72 79 73 80 33 274 297 285 249 221 213 257 309 332 40 21 324 286 215 227 289 300 200 242 189 182 214 237 186 109 254 340 312 25 52 98
231 222 229 240 262 124 92 73 42 28 58 179 186 247 252 291 270 246 239 99 39 49 302 13 47 258 257 239 265 273 272 268 237 164 180 207 224 217 240 277 317 318 3 25 155
225 207 217 235 243 122 109 146 150 171 57 212 249 276 263 325 286 319 110 149 147 265 53 353 247 245 301 281 276 242 275 243 304 200 180 173 214 149 176 259 262 330 330 338 262
180 212 217 211 161 117 121 138 121 123 89 263 193 172 276 9 285 290 20 200 227 246 194 202 258 319 286 304 278 249 255 347 199 119 77 143 151 155 194 165 268 354 291 296 311
170 203 218 160 207 178 113 130 120 94 74 255 213 340 331 23 267 305 277 238 331 289 296 244 285 292 293 247 225 265 166 34 148 82 60 313 123 150 159 157 233 227 281 311 283
171 198 224 186 149 140 138 120 109 57 30 256 141 24 3 66 297 346 328 350 241 248 72 265 302 346 310 317 122 319 355 56 17 91 162 70 94 331 115 31 211 234 280 299 278
160 186 207 88 25 125 119 95 51 46 260 275 127 31 18 29 13 298 316 17 206 310 213 238 238 246 284 58 28 300 119 29 28 5 44 348 138 169 156 196 236 105 311 292 293
158 170 191 211 174 150 105 59 41 130 357 264 136 114 118 25 22 6 346 339 36 353 341 292 232 294 228 323 254 264 53 41 23 30 3 321 5 163 201 211 217 179 189 305 277
152 158 205 262 128 121 70 56 113 186 202 199 95 86 79 5 346 323 345 341 219 236 271 339 33 2 2 116 301 54 124 134 132 98 107 10 28 37 21 206 220 229 171 218 252
133 99 165 211 129 75 76 83 210 194 188 149 72 73 99 95 337 31 220 265 240 204 347 3 38 306 17 8 335 77 60 345 133 50 66 321 303 255 7 39 53 215 207 210 245
123 144 130 165 105 71 77 230 187 192 139 105 123 174 122 278 71 14 328 314 326 190 180 353 54 300 320 333 40 26 338 55 353 84 87 6 23 313 342 343 4 63 192 193 217
112 126 128 151 73 59 173 218 208 157 133 147 138 113 128 171 93 79 282 297 349 326 173 330 85 301 25 22 357 13 13 44 103 78 154 130 358 321 310 315 23 43 49 54 158
120 122 144 136 108 315 169 191 167 147 106 106 102 119 144 193 158 110 296 256 339 285 0 331 129 81 257 311 189 162 359 56 91 356 36 102 331 347 332 347 38 43 32 31 39
104 112 81 213 168 237 228 108 112 129 143 136 110 134 221 157 87 87 230 269 327 20 14 347 28 12 347 360 20 48 352 34 72 65 44 100 250 353 15 33 26 38 17 20 28
134 126 123 211 118 161 149 162 122 51 102 96 120 91 141 57 34 144 317 338 344 12 16 25 23 115 162 209 233 13 348 49 83 70 151 121 100 353 4 29 13 7 26 28 33
140 163 173 175 223 178 131 148 142 143 98 111 113 184 163 134 126 131 168 286 23 348 19 57 41 8 322 311 98 27 19 22 56 185 103 176 106 356 346 356 352 360 13 28 19
139 135 76 102 107 116 147 186 146 131 142 184 155 173 146 141 181 183 146 6 194 328 26 7 360 36 5 12 31 76 70 66 61 58 48 75 51 0 34 55 39 21 25 21 5
209 64 102 22 114 112 193 172 172 137 20 149 145 107 104 156 113 114 103 127 83 37 349 36 68 58 313 354 330 22 17 1 337 29 128 63 31 340 24 37 24 7 9 23 5